Home   Weather   Ghent   Past weeks

Flag for Belgium Past Weather in Ghent, Belgium — Yesterday and Last 2 Weeks

Now
42 °F

Quite cool.


Feels Like: N/A
Forecast: 37 / 47 °F
Wind: N/A

Location: Munte

Current Time: Feb 24, 2017 at 8:40:44 pm

Latest Report: Feb 24, 2017 at 8:00 pm


Visibility: 13 mi

Pressure: 30.14 "Hg

Humidity: 80%

Dew Point: 36 °F

Location of GhentLocation

Past Weather in Ghent — Graph

°F

Ghent Temperature Yesterday

Maximum temperature yesterday: 52 °F (at 2:00 pm)
Minimum temperature yesterday: 44 °F (at 11:00 pm)
Average temperature yesterday: 49 °F

High & Low Weather Summary for the Past Weeks

 TemperatureHumidityPressure
High59 °F (Feb 15, 4:00 pm)100% (Feb 12, 4:00 am)30.48 "Hg (Feb 12, 4:00 am)
Low27 °F (Feb 10, 8:00 am)51% (Feb 14, 3:00 pm)29.32 "Hg (Feb 23, 2:00 pm)
Average43 °F85%30.16 "Hg
* Reported Feb 9 7:00 pm — Feb 24 7:00 pm, Ghent, Weather by CustomWeather, © 2017

Note: Actual official high and low records may vary slightly from our data, if they occured in-between our weather recording intervals... More about our weather records

Advertising

Ghent Weather History for the Previous 24 Hours

Scroll right to see more
 ConditionsComfort  
Time TempWeatherWind HumidityBarometerVisibility
7:00 pm
Fri, Feb 24
42 °FQuite cool.N/A79%30.13 "Hg12 mi
6:00 pm43 °FQuite cool.2 mph78%30.10 "Hg12 mi
5:00 pm43 °FQuite cool.N/A84%30.07 "Hg12 mi
4:00 pm42 °FLight rain. Cloudy.2 mph85%30.05 "Hg12 mi
3:00 pm40 °FRain. Cloudy.3 mph89%30.04 "Hg3 mi
2:00 pm40 °FLight rain. Cloudy.N/A88%30.03 "Hg12 mi
1:00 pm40 °FChilly.2 mph93%30.02 "Hg12 mi
12:00 pm41 °FQuite cool.3 mph85%30.01 "Hg12 mi
11:00 am41 °FQuite cool.3 mph84%29.98 "Hg12 mi
10:00 am42 °FQuite cool.2 mph84%29.95 "Hg9 mi
9:00 am40 °FLight rain. Cloudy.2 mph89%29.93 "Hg9 mi
8:00 am40 °FChilly.2 mph90%29.90 "Hg10 mi
7:00 am40 °FQuite cool.2 mph89%29.88 "Hg12 mi
6:00 am40 °FQuite cool.N/A84%29.85 "Hg12 mi
5:00 am40 °FChilly.2 mph83%29.82 "Hg12 mi
4:00 am41 °FQuite cool.3 mph76%29.80 "Hg12 mi
3:00 am42 °FQuite cool.3 mph76%29.77 "Hg12 mi
2:00 am42 °FQuite cool.3 mph80%29.74 "Hg12 mi
1:00 am43 °FQuite cool.6 mph70%29.70 "Hg12 mi
12:00 am43 °FQuite cool.6 mph78%29.65 "Hg12 mi
11:00 pm
Thu, Feb 23
44 °FLight rain. Overcast.7 mph72%29.60 "Hg10 mi
10:00 pm46 °FCool.9 mph61%29.54 "Hg12 mi
9:00 pm47 °FCool.10 mph54%29.47 "Hg12 mi
8:00 pm48 °FCool.10 mph58%29.41 "Hg12 mi
Weather by CustomWeather, © 2017

See weather overviewHow to use our weather pages